Regional Weather Roundup
Issued by NWS

Home | Current Version | Previous Version | Text Only | Print | Product List | Glossary On
Versions: 1 2 3 4 5 6 7 8 9 10 11 12 13 14 15 16 17 18 19 20 21 22 23 24 25 26 27 28 29 30 31 32 33 34 35 36 37 38 39 40 41 42 43 44 45 46 47 48 49 50
000
ASUS44 KJAN 161510
RWRMS

MISSISSIPPI HOURLY WEATHER ROUNDUP
NATIONAL WEATHER SERVICE JACKSON MS
900 AM CST SAT DEC 16 2017

NOTE: "FAIR: INDICATES FEW OR NO CLOUDS BELOW 12,000 FEET WITH NO
SIGNIFICANT WEATHER AND/OR OBSTRUCTIONS TO VISIBILITY.

MSZ001>002-007>008-010>013-018>021-025>028-034>036-161600-
NORTHWEST MISSISSIPPI

CITY           SKY/WX    TMP DP  RH WIND       PRES   REMARKS
BATESVILLE     FAIR      39  30  71 S8        30.29R WCI  33
CLARKSDALE     SUNNY     41  32  70 S8        30.28R
CLEVELAND      FAIR      38  31  74 S8        30.29R WCI  32
GREENWOOD      MOSUNNY   39  32  76 CALM      30.30S
GREENVILLE     SUNNY     38  32  79 S8        30.28R WCI  32
OLIVE BRANCH   MOSUNNY   37  30  75 SW9       30.23R WCI  31
OXFORD         FAIR      39  27  60 VRB6G14   30.29R WCI  35
TUNICA           N/A    N/A N/A N/A S8        30.28R
WINONA         FAIR      34  30  88 CALM      30.30S
$$

MSZ003>006-009-014>017-022>024-029>033-037>039-161600-
NORTHEAST MISSISSIPPI

CITY           SKY/WX    TMP DP  RH WIND       PRES   REMARKS
ABERDEEN       FAIR      36  36 100 S5        30.34R WCI  32
COLUMBUS AFB   CLOUDY    34  30  86 CALM      30.32S
CORINTH        FAIR      39  28  65 S7        30.28R WCI  34
GOLDN TRIANGLE CLOUDY    37  33  85 S6        30.33R WCI  32
STARKVILLE     FAIR      32  32 100 S3        30.33S
TUPELO         CLOUDY    35  28  75 SE7       30.31R WCI  29
$$

MSZ040-058-161600-
CENTRAL MISSISSIPPI

CITY           SKY/WX    TMP DP  RH WIND       PRES   REMARKS
JACKSON INTL   CLOUDY    42  32  67 CALM      30.29S
JACKSON HAWKNS CLOUDY    38  32  79 CALM      30.31R
MADISON        FAIR      37  32  81 CALM      30.31R
MERIDIAN KEY   CLOUDY    34  29  82 CALM      30.33R
MERIDIAN NAS   CLOUDY    36  31  82 CALM      30.34R
RAYMOND          N/A     39  34  81 CALM      30.30F
VICKSBURG VKS  SUNNY     41  30  65 CALM      30.32S
$$

MSZ059>079-161600-
SOUTH MISSISSIPPI

CITY           SKY/WX    TMP DP  RH WIND       PRES   REMARKS
HATTIESBURG    CLOUDY    38  34  85 NE3       30.34R
LAUREL         FAIR      38  31  76 SE3       30.34S
MCCOMB         CLOUDY    40  31  70 E5        30.30R
NATCHEZ        CLOUDY    40  36  86 CALM      30.30S
PINE BELT      CLOUDY    36  32  85 CALM      30.34R
$$

MSZ080>082-161600-
COASTAL MISSISSIPPI

CITY           SKY/WX    TMP DP  RH WIND       PRES   REMARKS
BAY ST LOUIS   PTSUNNY   43  32  65 NE5       30.32S
BILOXI         CLOUDY    43  32  63 NE8       30.31R
PASCAGOULA     CLOUDY    45  31  58 E6        30.32S
GULFPORT       CLOUDY    44  33  65 NE7       30.31S
$$

LAZ007>009-015>016-023>026-161600-
NORTHEAST LOUISIANA

CITY           SKY/WX    TMP DP  RH WIND       PRES   REMARKS
BASTROP        FAIR      40  32  72 S6        30.29R
TALLULAH/VBURG CLOUDY    39  34  82 CALM      30.31R
VIDALIA          N/A    N/A N/A N/A MISG      30.29S
$$



USA.gov is the U.S. government's official web portal to all federal, state and local government web resources and services.